Regional Weather Roundup
Issued by NWS Sioux Falls, SD

Home | Current Version | Previous Version | Text Only | Print | Product List | Glossary Off
Versions: 1 2 3 4 5 6 7 8 9 10 11 12 13 14 15 16 17 18 19 20 21 22 23 24 25 26 27 28 29 30 31 32 33 34 35 36 37 38 39 40 41 42 43 44 45 46 47 48 49 50

000
ASUS43 KFSD 200702
RWRFSD

WEATHER ROUNDUP FOR SE SOUTH DAKOTA/SW MINNESOTA/NW IOWA
NATIONAL WEATHER SERVICE SIOUX FALLS SD
200 AM CDT MON OCT 20 2014

NOTE: "FAIR" INDICATES FEW OR NO CLOUDS BELOW 12,000 FEET WITH NO
SIGNIFICANT WEATHER AND OR OBSTRUCTIONS TO VISIBILITY.


SDZ038>040-050-052>070-200800-
SOUTHEAST SOUTH DAKOTA

CITY           SKY/WX    TMP DP  RH WIND       PRES   REMARKS
CHAMBERLAIN    CLEAR     42  35  75 CALM      30.05R
HURON          CLEAR     36  32  85 NW3       30.02R
MADISON        FAIR      39  36  87 NW7       30.01R
MITCHELL       CLEAR     45  37  73 W6        30.03R
SIOUX FALLS    FAIR      44  38  79 CALM      30.00R
WINNER         FAIR      51  36  56 W6        30.06R
YANKTON        FAIR      46  39  76 NW12      30.01R
$$

MNZ071-072-080-081-089-090-097-098-200800-
SOUTHWEST MINNESOTA

CITY           SKY/WX    TMP DP  RH WIND       PRES   REMARKS
FAIRMONT       FAIR      48  36  61 NW7       29.95R
JACKSON        FAIR      46  37  71 NW7       29.97R
LUVERNE        FAIR      45  36  70 CALM      29.99R
MARSHALL       FAIR      45  36  70 W12       29.96R
MONTEVIDEO     FAIR      46  37  71 NW7       29.97R
PIPESTONE      FAIR      48  37  66 CALM      29.99R
REDWOOD FALLS  FAIR      48  39  71 W8        29.95R
TRACY          FAIR      49  39  69 W5        29.98R
WINDOM         FAIR      43  37  81 NW6       29.97R
WORTHINGTON    FAIR      45  37  76 NW8       29.99R
$$

IAZ001>003-012>014-020>022-031-032-NEZ013-014-SDZ071-200800-
NORTHWEST IOWA

CITY           SKY/WX    TMP DP  RH WIND       PRES   REMARKS
CHEROKEE       FAIR      46  43  88 NE3       29.98R
DENISON        FAIR      45  45 100 CALM      29.95R
ESTHERVILLE    FAIR      43  38  82 NW8       29.95R
LE MARS        FAIR      39  39 100 CALM      29.99R
ORANGE CITY    FAIR      55  39  54 N6        29.98R
SHELDON        FAIR      39  36  87 CALM      29.97R
SIOUX CITY     FAIR      45  42  89 N6        29.98R
SPENCER        FAIR      43  38  82 NW6       29.97R
STORM LAKE     FAIR      50  41  71 N9        29.98R
$$

ABBREVIATIONS USED IN REMARKS
   TC - TEMPERATURE IN CELSIUS
  WCI - WIND CHILL INDEX
   HX - HEAT INDEX
  VSB - VISIBILITY




USA.gov is the U.S. government's official web portal to all federal, state and local government web resources and services.